| time (UTC) | temp C | wind direction | speed KPH | gust KPH | rain 1hr cm | rain 24hr cm | rain mn cm | humidity % | barometer mb |
| 20260502170103 | 20 | 275 | 8.0 | 22.5 | 0.30 | 0.99 | 0.99 | 97 | 1009.1 |
| 20260502163058 | 21 | 44 | 1.6 | 4.8 | 0.08 | 0.74 | 0.74 | 98 | 1008.4 |
| 20260502161600 | 21 | 205 | 1.6 | 6.4 | 0.03 | 0.69 | 0.69 | 98 | 1008.7 |
| 20260502151558 | 19 | 0 | 0.0 | 6.4 | 0.66 | 0.66 | 0.66 | 96 | 1009.4 |
| 20260502140104 | 20 | 281 | 0.0 | 1.6 | 0.00 | 0.00 | 0.00 | 92 | 1009.5 |
| 20260502123053 | 20 | 0 | 0.0 | 3.2 | 0.00 | 0.00 | 0.00 | 92 | 1009.2 |
| 20260502121555 | 20 | 0 | 0.0 | 3.2 | 0.00 | 0.00 | 0.00 | 92 | 1009.2 |
| 20260502114551 | 20 | 265 | 1.6 | 6.4 | 0.00 | 0.00 | 0.00 | 93 | 1009.1 |
| 20260502113052 | 20 | 0 | 0.0 | 3.2 | 0.00 | 0.00 | 0.00 | 93 | 1009.0 |
| 20260502111613 | 19 | 0 | 0.0 | 3.2 | 0.00 | 0.00 | 0.00 | 93 | 1008.8 |
| 20260502110053 | 19 | 0 | 0.0 | 4.8 | 0.00 | 0.00 | 0.00 | 93 | 1008.6 |
| 20260502104553 | 19 | 289 | 0.0 | 3.2 | 0.00 | 0.00 | 0.00 | 93 | 1008.3 |
| 20260502103102 | 19 | 258 | 1.6 | 4.8 | 0.00 | 0.00 | 0.00 | 93 | 1008.0 |
| 20260502101601 | 19 | 289 | 0.0 | 3.2 | 0.00 | 0.00 | 0.00 | 93 | 1007.4 |
| 20260502070051 | 20 | 0 | 0.0 | 1.6 | 0.00 | 0.00 | 0.00 | 93 | 1009.5 |
| 20260502064601 | 20 | 0 | 0.0 | 1.6 | 0.00 | 0.00 | 0.00 | 93 | 1009.3 |
| 20260502063100 | 20 | 0 | 0.0 | 1.6 | 0.00 | 0.00 | 0.00 | 92 | 1009.7 |
| 20260502061555 | 20 | 0 | 0.0 | 0.0 | 0.00 | 0.00 | 0.00 | 92 | 1010.0 |
| 20260502060051 | 20 | 0 | 0.0 | 0.0 | 0.00 | 0.00 | 0.00 | 90 | 1010.0 |
| 20260502054601 | 20 | 0 | 0.0 | 0.0 | 0.00 | 0.00 | 0.00 | 89 | 1010.1 |
| 20260502053056 | 20 | 0 | 0.0 | 0.0 | 0.00 | 0.00 | 0.00 | 89 | 1010.1 |
| 20260502051553 | 20 | 0 | 0.0 | 0.0 | 0.00 | 0.00 | 0.00 | 89 | 1010.1 |
| 20260502050054 | 21 | 0 | 0.0 | 1.6 | 0.00 | 0.00 | 0.00 | 88 | 1010.3 |
| 20260502044551 | 21 | 0 | 0.0 | 0.0 | 0.00 | 0.00 | 0.00 | 88 | 1010.5 |
| 20260502043106 | 21 | 0 | 0.0 | 3.2 | 0.00 | 0.00 | 0.00 | 88 | 1010.4 |
| 20260502041553 | 21 | 0 | 0.0 | 0.0 | 0.00 | 0.00 | 0.00 | 87 | 1010.6 |
| 20260502040054 | 21 | 0 | 0.0 | 1.6 | 0.00 | 0.00 | 0.00 | 86 | 1010.7 |
| 20260502034553 | 21 | 0 | 0.0 | 1.6 | 0.00 | 0.00 | 0.00 | 85 | 1010.4 |
| 20260502033056 | 21 | 0 | 0.0 | 1.6 | 0.00 | 0.00 | 0.00 | 85 | 1010.7 |
| 20260502031555 | 21 | 0 | 0.0 | 4.8 | 0.00 | 0.00 | 0.00 | 85 | 1010.2 |
| 20260502030056 | 21 | 0 | 1.6 | 6.4 | 0.00 | 0.00 | 0.00 | 85 | 1009.9 |
| 20260502024553 | 21 | 115 | 0.0 | 3.2 | 0.00 | 0.00 | 0.00 | 84 | 1010.8 |
| 20260502023055 | 21 | 83 | 1.6 | 4.8 | 0.00 | 0.00 | 0.00 | 83 | 1010.9 |
| 20260502021553 | 21 | 338 | 0.0 | 3.2 | 0.00 | 0.00 | 0.00 | 82 | 1011.3 |
| 20260502020051 | 21 | 0 | 0.0 | 4.8 | 0.00 | 0.00 | 0.00 | 82 | 1011.3 |
| 20260502014552 | 21 | 82 | 1.6 | 6.4 | 0.00 | 0.00 | 0.00 | 82 | 1009.9 |
| 20260502013051 | 21 | 0 | 1.6 | 11.3 | 0.00 | 0.00 | 0.00 | 82 | 1010.7 |
| 20260502011552 | 21 | 0 | 1.6 | 9.7 | 0.00 | 0.00 | 0.00 | 83 | 1010.3 |
| 20260502010054 | 21 | 185 | 0.0 | 6.4 | 0.00 | 0.00 | 0.00 | 86 | 1010.7 |
| 20260502004607 | 22 | 69 | 1.6 | 9.7 | 0.00 | 0.41 | 0.00 | 88 | 1010.5 |
| 20260502003055 | 22 | 117 | 1.6 | 14.5 | 0.00 | 0.41 | 0.00 | 88 | 1010.3 |
| 20260502001555 | 22 | 26 | 1.6 | 9.7 | 0.00 | 0.41 | 0.00 | 87 | 1010.0 |
| 20260502000106 | 23 | 44 | 0.0 | 8.0 | 0.00 | 0.41 | 0.00 | 86 | 1009.5 |
| 20260501234555 | 23 | 59 | 0.0 | 12.9 | 0.00 | 0.69 | 0.00 | 86 | 1009.4 |
| 20260501233052 | 23 | 67 | 1.6 | 6.4 | 0.00 | 0.69 | 0.00 | 85 | 1009.2 |
| 20260501231554 | 23 | 0 | 1.6 | 6.4 | 0.00 | 0.69 | 0.00 | 83 | 1009.3 |
| 20260501230056 | 24 | 105 | 0.0 | 11.3 | 0.00 | 0.69 | 0.00 | 84 | 1008.8 |
| 20260501224556 | 24 | 94 | 3.2 | 12.9 | 0.00 | 0.69 | 0.00 | 84 | 1008.8 |
| 20260501223104 | 24 | 97 | 3.2 | 11.3 | 0.00 | 0.69 | 0.00 | 84 | 1009.0 |
| 20260501221554 | 25 | 74 | 3.2 | 9.7 | 0.00 | 0.69 | 0.00 | 79 | 1008.7 |
| 20260501220105 | 25 | 92 | 1.6 | 14.5 | 0.00 | 0.69 | 0.00 | 76 | 1008.6 |
| 20260501214554 | 26 | 67 | 4.8 | 12.9 | 0.00 | 0.69 | 0.00 | 75 | 1008.7 |
| 20260501213109 | 26 | 76 | 3.2 | 11.3 | 0.00 | 0.69 | 0.00 | 73 | 1008.5 |
| 20260501211556 | 28 | 118 | 6.4 | 12.9 | 0.00 | 0.69 | 0.00 | 65 | 1008.1 |
| 20260501210057 | 30 | 280 | 3.2 | 12.9 | 0.00 | 0.69 | 0.00 | 55 | 1008.1 |
| 20260501204553 | 30 | 319 | 3.2 | 11.3 | 0.00 | 0.69 | 0.00 | 56 | 1008.1 |
| 20260501203059 | 30 | 291 | 4.8 | 11.3 | 0.00 | 0.69 | 0.00 | 54 | 1008.2 |
| 20260501201554 | 30 | 270 | 6.4 | 20.9 | 0.00 | 0.69 | 0.00 | 55 | 1008.5 |
| 20260501200056 | 30 | 28 | 3.2 | 19.3 | 0.00 | 0.69 | 0.00 | 57 | 1008.9 |
| 20260501194556 | 30 | 302 | 1.6 | 17.7 | 0.00 | 0.84 | 0.00 | 58 | 1009.1 |
| 20260501193056 | 30 | 278 | 8.0 | 17.7 | 0.00 | 0.84 | 0.00 | 59 | 1009.4 |
| 20260501191553 | 29 | 257 | 3.2 | 11.3 | 0.00 | 0.84 | 0.00 | 59 | 1009.4 |
| 20260501190054 | 28 | 302 | 4.8 | 14.5 | 0.00 | 0.84 | 0.00 | 62 | 1009.6 |
| 20260501184551 | 28 | 311 | 4.8 | 14.5 | 0.00 | 0.94 | 0.00 | 63 | 1009.9 |
| 20260501183058 | 28 | 288 | 1.6 | 11.3 | 0.00 | 0.94 | 0.00 | 63 | 1010.0 |
| 20260501181553 | 28 | 311 | 3.2 | 12.9 | 0.00 | 0.94 | 0.00 | 61 | 1010.0 |
| 20260501180054 | 28 | 280 | 8.0 | 17.7 | 0.00 | 0.94 | 0.00 | 63 | 1010.1 |